Belleville, IL

11:55 AM CDT on April 25, 2018 (GMT -0500)
Scott Air Force Base-Midamerica

Weather History for KBLV - August, 2013

Change the Weather History Date:

Saturday, August 31, 2013

  Actual Average Record
Temperature  
Mean Temperature 86 °F -  
Max Temperature 100 °F 86 °F 100 °F (2013)
Min Temperature 73 °F 61 °F 44 °F (1988)
Cooling Degree Days 21    
Growing Degree Days 36 (Base 50)    
Moisture  
Dew Point 73 °F    
Average Humidity 72    
Maximum Humidity 100    
Minimum Humidity 36    
Precipitation  
Precipitation 0.15 in - - ()
Sea Level Pressure  
Sea Level Pressure 29.78 in    
Wind  
Wind Speed 7 mph (SW)    
Max Wind Speed 31 mph    
Max Gust Speed 61 mph    
Visibility 9 miles    
Events Rain , Thunderstorm    
Averages and records for this station are not official NWS values.
T = Trace of Precipitation, MM = Missing Value Source: NWS Daily Summary

Daily Weather History Graph

Daily Weather History Graph

Search for Another Location

Airport or City:

Astronomy

Aug. 31, 2013 Rise Set
Actual Time 6:27 AM CDT 7:30 PM CDT
Civil Twilight 6:00 AM CDT 7:57 PM CDT
Nautical Twilight 5:28 AM CDT 8:29 PM CDT
Astronomical Twilight 4:54 AM CDT 9:03 PM CDT
Moon 1:58 AM CDT (8/31) 4:26 PM CDT (8/31)
Length of Visible Light 13h 56m
Length of Day
13h 02m
Waning Crescent, 21% of the Moon is Illuminated
Aug 31
Waning Crescent
Sep 5
New
Sep 12
First Quarter
Sep 19
Full
Sep 26
Last Quarter

Hourly Weather History & Observations

Time (CDT) Temp. Heat Index Dew Point Humidity Pressure Visibility Wind Dir Wind Speed Gust Speed Precip Events Conditions
12:58 AM 78.4 °F - 75.4 °F 90% 29.83 in 10.0 mi SW 4.6 mph - N/A   Clear
1:58 AM 77.9 °F - 75.0 °F 91% 29.83 in 10.0 mi WSW 5.8 mph - N/A   Clear
2:58 AM 77.4 °F - 74.7 °F 91% 29.83 in 10.0 mi SW 2.3 mph - N/A   Clear
3:58 AM 76.5 °F - 74.5 °F 94% 29.83 in 10.0 mi SW 3.5 mph - N/A   Clear
4:58 AM 75.7 °F - 73.9 °F 94% 29.83 in 10.0 mi SSW 2.3 mph - N/A   Clear
5:58 AM 73.9 °F - 73.6 °F 99% 29.83 in 10.0 mi ENE 2.3 mph - N/A   Clear
6:58 AM 73.2 °F - 73.2 °F 100% 29.83 in 10.0 mi Calm Calm - N/A   Clear
7:48 AM 77.0 °F - 75.2 °F 94% 29.85 in 10.0 mi Calm Calm - N/A Rain Light Rain
7:58 AM 77.5 °F - 76.1 °F 95% 29.85 in 10.0 mi Calm Calm - 0.00 in Rain Light Rain
8:07 AM 78.8 °F - 75.2 °F 89% 29.85 in 10.0 mi Calm Calm - N/A   Clear
8:14 AM 78.8 °F - 75.2 °F 89% 29.86 in 10.0 mi Calm Calm - N/A Rain Light Rain
8:50 AM 82.4 °F 89.5 °F 75.2 °F 79% 29.86 in 10.0 mi SSW 2.3 mph - N/A   Clear
8:58 AM 82.9 °F 90.5 °F 75.4 °F 78% 29.86 in 10.0 mi SW 2.3 mph - 0.00 in   Clear
9:58 AM 88.0 °F 99.6 °F 76.6 °F 69% 29.85 in 10.0 mi Variable 6.9 mph - N/A   Clear
10:10 AM 89.6 °F 102.2 °F 77.0 °F 66% 29.85 in 10.0 mi WSW 8.1 mph - N/A   Light Drizzle
10:25 AM 91.4 °F 102.5 °F 75.2 °F 59% 29.85 in 10.0 mi WSW 9.2 mph - N/A   Clear
10:58 AM 92.5 °F 102.6 °F 74.3 °F 55% 29.83 in 10.0 mi Variable 5.8 mph - 0.00 in   Clear
11:58 AM 94.3 °F 107.1 °F 75.7 °F 55% 29.82 in 10.0 mi West 8.1 mph - N/A   Clear
12:58 PM 96.3 °F 108.3 °F 75.0 °F 50% 29.81 in 10.0 mi Variable 5.8 mph - N/A   Clear
1:58 PM 97.9 °F 107.6 °F 72.7 °F 44% 29.78 in 10.0 mi SW 10.4 mph - N/A   Clear
2:58 PM 99.3 °F 107.0 °F 70.3 °F 39% 29.77 in 10.0 mi SSW 10.4 mph - N/A   Clear
3:58 PM 99.7 °F 105.6 °F 68.4 °F 36% 29.75 in 10.0 mi SW 9.2 mph - N/A   Clear
4:58 PM 99.3 °F 105.6 °F 68.7 °F 37% 29.74 in 10.0 mi SW 9.2 mph - N/A   Clear
5:27 PM 95.0 °F 101.3 °F 69.8 °F 44% 29.73 in 10.0 mi WSW 6.9 mph - N/A Thunderstorm Thunderstorm
5:34 PM 95.0 °F 103.2 °F 71.6 °F 47% 29.73 in 4.0 mi West 26.5 mph 31.1 mph N/A Rain , Thunderstorm Light Thunderstorms and Rain
5:36 PM 95.0 °F 104.5 °F 73.4 °F 49% 29.73 in 4.0 mi WSW 21.9 mph 31.1 mph N/A Rain , Thunderstorm Light Thunderstorms and Rain
5:46 PM 84.2 °F 89.6 °F 71.6 °F 66% 29.75 in 1.5 mi SW 31.1 mph 61.0 mph N/A Rain , Thunderstorm Thunderstorms and Rain
5:49 PM 80.6 °F 83.9 °F 69.8 °F 70% 29.75 in 1.5 mi SSW 21.9 mph 61.0 mph N/A Rain , Thunderstorm Thunderstorms and Rain
5:50 PM 80.6 °F 83.9 °F 69.8 °F 70% 29.74 in 1.5 mi South 19.6 mph 61.0 mph N/A Rain , Thunderstorm Thunderstorms and Rain
5:55 PM 82.4 °F 86.3 °F 69.8 °F 66% 29.71 in 9.0 mi SSE 19.6 mph 42.6 mph N/A Rain , Thunderstorm Light Thunderstorms and Rain
5:58 PM 81.7 °F 84.9 °F 69.1 °F 65% 29.72 in 10.0 mi SSE 20.7 mph 29.9 mph 0.13 in Rain , Thunderstorm Light Thunderstorms and Rain
6:02 PM 84.2 °F 88.4 °F 69.8 °F 62% 29.72 in 10.0 mi South 11.5 mph 25.3 mph N/A Thunderstorm Thunderstorm
6:03 PM 84.2 °F 88.4 °F 69.8 °F 62% 29.72 in 10.0 mi South 11.5 mph 25.3 mph N/A Thunderstorm Scattered Clouds
6:17 PM 84.2 °F 89.6 °F 71.6 °F 66% 29.72 in 10.0 mi South 9.2 mph - N/A Thunderstorm Thunderstorm
6:32 PM 84.2 °F 90.9 °F 73.4 °F 70% 29.72 in 10.0 mi South 5.8 mph - N/A   Scattered Clouds
6:58 PM 83.3 °F 91.1 °F 75.6 °F 77% 29.71 in 10.0 mi SSW 3.5 mph - 0.00 in   Scattered Clouds
7:58 PM 80.2 °F 86.0 °F 76.3 °F 88% 29.73 in 10.0 mi South 4.6 mph - N/A   Clear
8:46 PM 82.4 °F 89.5 °F 75.2 °F 79% 29.73 in 10.0 mi Calm Calm - N/A Thunderstorm Thunderstorm
8:58 PM 82.4 °F 90.9 °F 77.0 °F 84% 29.76 in 10.0 mi West 25.3 mph 38.0 mph N/A Thunderstorm Thunderstorm
9:02 PM 82.4 °F 88.2 °F 73.4 °F 74% 29.76 in 10.0 mi West 19.6 mph 38.0 mph N/A Thunderstorm Thunderstorm
9:03 PM 82.4 °F 87.2 °F 71.6 °F 70% 29.76 in 10.0 mi West 18.4 mph 38.0 mph N/A Rain , Thunderstorm Light Thunderstorms and Rain
9:25 PM 80.6 °F 83.9 °F 69.8 °F 70% 29.75 in 10.0 mi Variable 5.8 mph - N/A Rain , Thunderstorm Light Rain
9:33 PM 78.8 °F - 69.8 °F 74% 29.76 in 10.0 mi North 4.6 mph - N/A   Partly Cloudy
9:58 PM 79.7 °F - 72.0 °F 77% 29.77 in 10.0 mi Calm Calm - 0.02 in   Scattered Clouds
10:58 PM 76.8 °F - 74.1 °F 91% 29.78 in 10.0 mi ENE 3.5 mph - N/A   Partly Cloudy
11:58 PM 76.5 °F - 73.8 °F 91% 29.78 in 10.0 mi NW 3.5 mph - N/A   Clear